Location: Unspecified
(0.0000°N, 0.0000°E)
Time: 11:35:06
(UTC+00:00)

UWE-3 - Visible Passes

Search period start: 19 January 2018 00:00
Search period end: 29 January 2018 00:00
Orbit: 587 x 683 km, 97.6° (Epoch: 18 January)

Date Brightness Start Highest point End Pass type
(mag) Time Alt. Az. Time Alt. Az. Time Alt. Az.
19 Jan ? 18:41:44 10° SE 18:45:14 25° ENE 18:48:47 10° NNE visible
19 Jan ? 20:19:44 10° SW 20:21:26 12° W 20:23:08 10° WNW visible
20 Jan ? 19:02:59 10° SSE 19:07:07 53° ENE 19:11:20 10° N visible
21 Jan ? 19:24:47 10° S 19:29:00 70° WSW 19:33:20 10° NNW visible
22 Jan ? 19:47:06 10° SSW 19:50:55 32° W 19:54:49 10° NW visible
23 Jan ? 18:33:29 10° SE 18:36:39 20° ENE 18:39:51 10° NNE visible
23 Jan ? 20:10:10 10° SW 20:12:50 16° W 20:15:32 10° WNW visible
24 Jan ? 18:54:28 10° SSE 18:58:31 41° ENE 19:02:39 10° N visible
25 Jan ? 19:16:06 10° SSE 19:20:24 88° E 19:24:50 10° N visible
26 Jan ? 19:38:13 10° S 19:42:19 43° W 19:46:30 10° NNW visible
27 Jan ? 20:00:56 10° SSW 20:04:14 21° W 20:07:34 10° NW visible
28 Jan ? 18:46:03 10° SE 18:49:56 32° ENE 18:53:53 10° NNE visible
28 Jan ? 20:25:31 10° WSW 20:26:07 10° WSW 20:26:44 10° W visible
